星链-3849 (STARLINK-3849 )

导读

STARLINK-3849是美国SpaceX公司星链(Starlink)星座的一员,于2022年4月29日发射升空。星链项目旨在构建全球卫星互联网,为全球偏远、网络基础设施薄弱区域提供高速宽带互联网接入服务,该卫星运行在近地轨道,属于星链星座组网卫星,是SpaceX推进大规模低轨卫星星座建设的组成部分,助力实现全球全域的网络覆盖目标。

Basic Information
目录编号:
52343
目录名称:
STARLINK-3849
国际标识:
2022-045N
轨道中心:
EARTH
卫星名称:
星链-3849
卫星全名:
星链-3849 (STARLINK-3849 )
卫星状态:
在轨 (已飞行1510 天)
发射日期:
2022-04-29 UTC
国别 :
美国 (US)
星等 :
--
Orbit Information
数据来源 国际轨道数据 AOE轨道数据
星历时间 2026-06-17T11:42:57+0800
13小时前
查看轨道信息
2026-06-16T03:00:00+0800
1天前
查看轨道信息
半长轴 6917.9km 6917.905km
偏心率 0.0001298 0.0001418
轨道倾角 53.161° 53.159°
近地点辐角 89.969° 89.413°
升交点赤经 122.510° 128.640°
平近点角 270.145° 62.189°
近地点 538.865km 538.787km
远地点 540.661km 540.749km
周期 95.438分钟 95.438分钟
每日圈数 15.088337 15.08832
Detailed Information
固有亮度:
5
最大亮度:
2.5
卫星平台:
Starlink v1.5
覆盖范围:
全球
运营商:
太空探索技术公司
运营商所在国:
美国
制造商(研发单位):
太空探索技术公司
制造商所在国:
美国
使用方式:
暂无
Satellite Introduction
星链(Starlink)计划是由太空探索技术公司(SpaceX)提出的一个巨型低轨卫星互联网星座项目,计划在2019年至2024年间在太空搭建由约1.2万颗卫星组成的“星链”网络,其中1584颗将部署在地球上空550千米处的近地轨道,并从2020年开始工作。该卫星仍在工作。
2D Orbit Map
3D Orbit Map
Orbit Altitude Analysis Chart
Orbit Inclination Analysis Chart
Orbit Comprehensive Analysis Chart
View Comprehensive Chart